Location: Cold Norton
(51.6667°N, 0.6667°E)
Time: 17:13:49
(UTC+00:00)

Timation 2 Rocket - Pass Details

Date: 18 November 2025
Orbit: 904 x 1074 km, 70.0° (Epoch: 10 December)

Event Time Altitude Azimuth Distance (km) Brightness Sun altitude
Rises 17:22:10 0° 198° (SSW) 3,846 7.6 -12.0°
Reaches altitude 10° 17:24:48 10° 195° (SSW) 2,901 6.9 -12.4°
Maximum altitude 17:31:34 65° 116° (ESE) 1,173 4.2 -13.4°
Drops below altitude 10° 17:38:19 10° 36° (NE) 2,893 6.0 -14.5°
Enters shadow 17:38:22 10° 36° (NE) 2,909 6.0 -14.5°
